Weather History for Vero Beach, FL

Change the Weather History Date:

Saturday, December 15, 2012

  Actual Average Record
Temperature  
Mean Temperature 70 °F 65 °F  
Max Temperature 79 °F 74 °F 85 °F (1947)
Min Temperature 60 °F 55 °F 29 °F (2010)
Degree Days  
Heating Degree Days 0 3  
Month to date heating degree days 0 38  
Since 1 July heating degree days 52 68  
Cooling Degree Days 5 3  
Month to date cooling degree days 83 52  
Year to date cooling degree days 3502 3363  
Growing Degree Days 19 (Base 50)    
Moisture  
Dew Point 62 °F    
Average Humidity 76    
Maximum Humidity 100    
Minimum Humidity 52    
Precipitation  
Precipitation 0.03 in 0.07 in 1.51 in (1976)
Month to date precipitation 3.31 1.06  
Year to date precipitation 49.70 50.74  
Sea Level Pressure  
Sea Level Pressure 30.10 in    
Wind  
Wind Speed 6 mph (NNW)    
Max Wind Speed 14 mph    
Max Gust Speed 18 mph    
Visibility 5 miles    
Events Fog , Rain    
T = Trace of Precipitation, MM = Missing Value Source: NWS Daily Summary

Daily Weather History Graph

Daily Weather History Graph

Search for Another Location

Airport:

Trip Planner

Search our weather history database for the weather conditions in past years. The results will help you decide how hot, cold, wet, or windy it might be!

Date:

Astronomy

Dec. 15, 2012 Rise Set
Actual Time 7:04 AM EST 5:29 PM EST
Civil Twilight 6:39 AM EST 5:54 PM EST
Nautical Twilight 6:10 AM EST 6:24 PM EST
Astronomical Twilight 5:41 AM EST 6:52 PM EST
Moon 9:05 AM EST (12/15) 8:20 PM EST (12/15)
Length of Visible Light 11h 15m
Length of Day
10h 24m
Waxing Crescent, 8% of the Moon is Illuminated
Dec 15
Waxing Crescent
Dec 20
First Quarter
Dec 28
Full
Jan 4
Last Quarter
Jan 11
New

Hourly Weather History & Observations

Time (EST) Temp. Dew Point Humidity Pressure Visibility Wind Dir Wind Speed Gust Speed Precip Events Conditions
12:02 AM 62.6 °F 60.8 °F 94% 30.12 in 6.0 mi WNW 6.9 mph - 0.01 in Rain Light Rain
12:09 AM 62.6 °F 60.8 °F 94% 30.12 in 8.0 mi WNW 4.6 mph - 0.01 in   Mostly Cloudy
12:30 AM 62.6 °F 60.8 °F 94% 30.10 in 8.0 mi NW 4.6 mph - 0.01 in   Mostly Cloudy
12:53 AM 63.0 °F 61.0 °F 93% 30.10 in 5.0 mi NW 3.5 mph - 0.02 in Rain Light Rain
1:03 AM 62.6 °F 62.6 °F 100% 30.09 in 7.0 mi NW 3.5 mph - 0.00 in Rain Light Rain
1:34 AM 62.6 °F 62.6 °F 100% 30.09 in 6.0 mi Calm Calm - 0.00 in   Mostly Cloudy
1:53 AM 62.1 °F 61.0 °F 96% 30.08 in 6.0 mi West 4.6 mph - 0.00 in   Mostly Cloudy
2:10 AM 62.6 °F 60.8 °F 94% 30.08 in 5.0 mi West 5.8 mph - N/A   Mostly Cloudy
2:17 AM 62.6 °F 60.8 °F 94% 30.08 in 4.0 mi West 6.9 mph - N/A   Mostly Cloudy
2:29 AM 62.6 °F 60.8 °F 94% 30.07 in 1.8 mi West 5.8 mph - N/A   Overcast
2:53 AM 62.1 °F 61.0 °F 96% 30.07 in 0.8 mi WNW 3.5 mph - N/A   Mist
3:35 AM 62.6 °F 60.8 °F 94% 30.08 in 1.5 mi NNW 10.4 mph - N/A   Overcast
3:41 AM 62.6 °F 60.8 °F 94% 30.07 in 2.0 mi NW 9.2 mph - 0.01 in Rain Light Rain
3:53 AM 62.1 °F 61.0 °F 96% 30.08 in 2.0 mi NW 9.2 mph - 0.02 in   Overcast
4:00 AM 62.6 °F 60.8 °F 94% 30.08 in 1.8 mi NW 6.9 mph - N/A   Overcast
4:06 AM 62.6 °F 60.8 °F 94% 30.08 in 2.0 mi NW 6.9 mph - N/A   Overcast
4:10 AM 62.6 °F 60.8 °F 94% 30.09 in 3.0 mi NW 6.9 mph - N/A   Overcast
4:38 AM 62.6 °F 60.8 °F 94% 30.09 in 6.0 mi NW 4.6 mph - N/A   Overcast
4:53 AM 62.1 °F 61.0 °F 96% 30.09 in 6.0 mi NNW 6.9 mph - 0.00 in Rain Light Rain
5:49 AM 60.8 °F 60.8 °F 100% 30.09 in 5.0 mi NW 3.5 mph - 0.00 in   Mostly Cloudy
5:53 AM 61.0 °F 60.1 °F 97% 30.09 in 5.0 mi NW 4.6 mph - 0.00 in   Mostly Cloudy
6:07 AM 60.8 °F 60.8 °F 100% 30.10 in 1.8 mi Calm Calm - N/A   Overcast
6:20 AM 60.8 °F 60.8 °F 100% 30.10 in 0.5 mi Calm Calm - N/A Fog Fog
6:38 AM 60.8 °F 60.8 °F 100% 30.10 in 0.2 mi NW 3.5 mph - N/A Fog Fog
6:50 AM 60.8 °F 60.8 °F 100% 30.11 in 0.5 mi NW 4.6 mph - N/A Fog Fog
6:53 AM 61.0 °F 60.1 °F 97% 30.11 in 0.5 mi NW 5.8 mph - N/A Fog Fog
6:56 AM 60.8 °F 60.8 °F 100% 30.11 in 0.2 mi NW 5.8 mph - N/A Fog Fog
7:53 AM 62.1 °F 62.1 °F 100% 30.12 in 0.2 mi WNW 4.6 mph - N/A Fog Fog
8:42 AM 62.6 °F 62.6 °F 100% 30.13 in 0.2 mi NW 3.5 mph - N/A Fog Fog
8:53 AM 64.0 °F 64.0 °F 100% 30.14 in 0.2 mi NW 4.6 mph - N/A Fog Fog
9:03 AM 64.4 °F 64.4 °F 100% 30.14 in 0.5 mi NW 4.6 mph - N/A Fog Fog
9:17 AM 64.4 °F 64.4 °F 100% 30.15 in 1.2 mi NW 4.6 mph - N/A   Overcast
9:34 AM 66.2 °F 66.2 °F 100% 30.15 in 2.5 mi Calm Calm - N/A   Mostly Cloudy
9:50 AM 66.2 °F 66.2 °F 100% 30.14 in 8.0 mi Calm Calm - N/A   Scattered Clouds
9:53 AM 68.0 °F 66.9 °F 96% 30.14 in 8.0 mi Calm Calm - N/A   Scattered Clouds
10:53 AM 75.9 °F 63.0 °F 64% 30.14 in 10.0 mi East 8.1 mph - N/A   Clear
11:53 AM 78.1 °F 60.1 °F 54% 30.12 in 10.0 mi ENE 9.2 mph - N/A   Scattered Clouds
12:53 PM 78.1 °F 62.1 °F 58% 30.09 in 10.0 mi ENE 9.2 mph - N/A   Scattered Clouds
1:53 PM 78.1 °F 60.1 °F 54% 30.07 in 10.0 mi East 10.4 mph - N/A   Scattered Clouds
2:53 PM 78.1 °F 59.0 °F 52% 30.06 in 10.0 mi ESE 8.1 mph - N/A   Clear
3:53 PM 75.0 °F 59.0 °F 57% 30.07 in 10.0 mi ENE 6.9 mph - N/A   Partly Cloudy
4:53 PM 73.9 °F 60.1 °F 62% 30.07 in 10.0 mi ENE 5.8 mph - N/A   Clear
5:53 PM 70.0 °F 63.0 °F 78% 30.08 in 10.0 mi NE 5.8 mph - N/A   Clear
6:53 PM 72.0 °F 64.9 °F 78% 30.09 in 10.0 mi NE 5.8 mph - N/A   Overcast
7:53 PM 70.0 °F 63.0 °F 78% 30.10 in 10.0 mi NNE 5.8 mph - N/A   Overcast
8:53 PM 71.1 °F 61.0 °F 70% 30.09 in 10.0 mi East 9.2 mph - N/A   Overcast
9:53 PM 70.0 °F 63.0 °F 78% 30.09 in 10.0 mi East 4.6 mph - 0.00 in Rain Light Rain
10:03 PM 69.8 °F 64.4 °F 83% 30.09 in 10.0 mi ENE 3.5 mph - 0.00 in   Overcast
10:35 PM 69.8 °F 64.4 °F 83% 30.10 in 10.0 mi Calm Calm - 0.00 in   Overcast
10:53 PM 69.1 °F 62.1 °F 78% 30.09 in 10.0 mi Calm Calm - 0.00 in   Scattered Clouds
11:53 PM 64.0 °F 61.0 °F 90% 30.07 in 10.0 mi Calm Calm - N/A   Mostly Cloudy